Wind_Speed
11 11 10 10 10 11 12 14 13 12 13 13 13 12 11 9 7 4 4 6 9 11 12 12 11 10 10 9 8 7 5 4 2 1 1 2 4 5 5 6 7 7 8 8 8 8 7 7 7
11 11 10 11 11 12 13 13 13 14 14 14 14 14 12 10 8 5 4 7 9 12 13 13 12 12 11 10 8 7 5 4 2 1 1 2 4 5 5 6 7 8 8 8 8 8 7 7 6
11 11 11 11 11 12 13 13 14 14 15 16 16 15 14 12 9 6 6 7 9 11 13 14 14 13 12 11 9 7 6 4 2 1 1 3 5 6 6 7 8 8 9 8 8 8 8 7 6
12 12 12 12 12 13 13 13 14 15 17 17 17 16 14 12 11 8 7 8 10 12 13 15 15 14 13 11 10 8 7 4 2 1 2 3 5 6 7 8 8 8 9 9 9 8 7 7 7
12 12 12 12 12 12 12 13 14 16 17 18 18 16 15 13 12 10 9 9 11 13 14 16 16 15 13 12 10 9 7 5 3 1 2 3 5 6 8 8 8 9 9 9 9 8 7 7 7
12 13 12 12 12 12 12 13 14 16 18 18 17 16 16 15 13 10 9 10 12 14 16 17 16 15 14 12 10 9 7 5 3 2 2 4 5 7 8 8 8 9 9 9 8 7 7 6 6
12 12 11 11 12 12 13 14 15 16 17 17 17 17 16 15 12 9 8 11 14 16 17 17 16 16 15 13 11 9 7 5 3 3 3 5 6 7 8 8 8 9 8 8 7 7 6 6 6
12 13 12 12 12 13 14 14 15 15 16 16 17 17 16 14 12 9 8 10 15 17 17 17 16 16 16 14 12 10 8 6 4 4 4 5 6 7 8 9 9 8 8 7 6 6 6 6 6
12 12 12 12 12 13 14 14 15 15 16 17 18 18 16 15 13 10 8 11 14 17 18 17 17 17 16 15 13 10 8 7 5 5 5 6 7 8 9 9 9 8 7 6 5 5 5 6 6
11 11 11 11 11 12 14 15 15 17 17 18 18 18 16 14 13 10 9 10 14 17 18 18 18 18 17 15 13 11 9 8 7 6 6 6 7 8 8 8 8 8 7 6 5 4 5 5 5
10 10 9 9 10 12 14 15 15 17 18 18 19 18 16 15 14 10 9 10 14 18 19 19 19 19 18 16 15 13 11 9 8 7 6 7 7 7 7 8 8 7 6 5 5 4 5 5 5
7 7 7 8 9 11 13 15 15 16 18 19 19 19 16 15 14 12 11 11 15 19 21 21 21 20 19 18 16 14 13 11 9 8 7 7 7 7 7 7 7 6 6 5 4 4 4 3 3
6 6 6 7 9 11 13 15 15 17 18 20 20 19 17 15 15 13 12 12 14 19 22 22 22 22 20 19 18 16 14 12 10 9 8 8 7 7 7 8 7 6 5 4 4 3 3 3 2
6 7 7 8 10 12 13 15 16 18 20 20 21 20 18 18 17 14 11 10 13 18 22 23 24 23 22 21 20 18 16 13 11 10 9 8 7 7 7 7 6 5 4 4 3 3 2 1 1
8 9 9 10 11 13 13 15 17 19 20 21 22 21 20 19 17 14 11 9 11 16 23 25 25 24 24 23 22 20 17 15 13 11 9 8 8 7 7 6 5 4 4 3 3 2 1 0 0
10 10 10 11 12 14 14 15 19 20 21 22 21 21 20 19 17 14 11 9 10 14 21 25 25 24 24 23 22 21 18 15 13 11 10 9 8 7 6 6 5 4 3 2 1 1 1 1 1
12 12 12 13 12 14 15 17 20 22 22 22 21 20 20 19 16 14 12 10 10 14 19 22 24 24 24 24 23 20 18 16 14 12 11 9 8 7 6 5 5 4 3 2 0 0 1 2 2
14 14 15 15 14 14 15 19 21 23 23 21 20 20 20 18 16 13 10 8 10 13 18 22 24 25 25 24 23 20 18 16 15 13 11 10 9 7 6 5 4 3 2 1 1 1 2 3 3
16 16 16 16 15 14 16 19 21 23 23 20 18 19 19 17 15 12 8 7 10 15 19 21 23 25 25 24 22 20 19 17 15 13 12 11 10 8 7 6 5 4 3 2 2 2 3 3 3
18 18 17 17 15 15 16 18 21 22 21 18 17 17 16 15 13 10 6 4 9 13 18 20 22 23 23 23 22 21 20 17 15 14 13 12 10 9 9 8 7 5 4 3 3 3 3 4 4
18 19 18 17 15 14 16 16 20 20 19 17 16 15 15 13 12 10 5 2 8 13 15 18 21 21 22 23 22 21 19 17 16 15 13 12 11 10 10 9 8 7 6 5 4 4 4 4 4
18 19 18 17 15 14 15 16 17 18 19 18 15 14 14 12 11 9 5 2 6 11 13 17 19 21 22 22 21 20 19 17 17 15 14 13 12 12 11 10 9 8 7 6 5 4 4 4 4
18 18 18 17 14 13 13 15 15 16 18 17 14 14 13 12 10 8 5 2 3 8 11 15 18 20 21 21 21 20 18 17 16 15 14 13 13 13 12 11 10 10 9 8 7 6 5 5 5
17 17 17 16 14 12 12 13 14 15 17 15 13 13 12 11 9 7 5 3 2 6 10 13 16 18 20 20 19 18 17 16 16 15 14 13 13 13 13 12 12 11 11 11 10 9 9 8 8
18 17 17 16 13 11 11 12 13 14 16 14 12 12 12 10 8 6 4 2 2 4 8 11 14 17 18 18 18 17 17 16 15 14 14 13 14 14 14 14 13 13 13 13 13 13 12 12 12
19 18 18 17 15 12 11 12 12 13 14 14 12 11 11 10 8 6 3 1 2 3 6 9 13 15 16 17 18 17 17 16 15 15 14 14 14 15 15 15 15 15 15 16 16 16 16 16 16
20 20 20 19 18 16 13 11 10 12 12 13 12 11 10 9 8 5 3 1 1 2 4 7 11 12 14 15 16 17 16 16 16 15 15 15 15 16 16 16 16 17 17 18 18 19 19 20 20
21 21 21 21 20 18 14 11 12 12 12 13 11 10 11 10 8 5 3 2 2 2 3 5 7 9 11 15 16 16 16 17 16 16 16 16 16 17 17 17 18 19 19 20 21 22 22 23 23
23 23 23 23 22 21 18 12 12 12 11 11 10 10 11 10 8 6 5 4 4 3 4 5 7 9 10 13 15 16 17 17 16 17 17 18 18 18 18 19 19 20 21 22 24 25 25 25 26
26 26 25 25 24 24 22 15 13 12 12 12 12 12 12 11 9 7 6 5 5 5 6 6 7 8 10 11 13 15 17 18 18 19 19 19 19 19 20 20 21 22 23 24 26 27 28 29 29
Wind_Direction
343 342 342 338 334 334 341 344 344 350 357 2 1 358 358 353 349 332 259 238 232 225 217 211 210 204 196 183 170 162 154 148 141 119 18 353 343 338 335 334 335 336 338 340 342 344 348 353 356
338 338 334 330 331 333 339 341 344 355 358 359 358 354 350 347 343 319 274 244 234 227 219 214 211 204 197 187 178 171 166 160 160 163 343 338 335 333 332 333 333 334 335 338 340 340 342 344 346
332 331 327 326 329 331 334 339 345 354 355 354 353 348 342 337 332 309 275 246 233 224 222 219 213 206 199 191 181 173 169 168 177 222 319 328 330 331 332 332 333 333 333 334 333 333 333 334 337
328 324 323 324 330 331 332 339 348 352 352 351 349 343 338 329 324 304 272 243 228 219 220 219 211 205 198 190 181 174 173 179 188 244 317 327 328 328 328 328 330 331 331 331 329 329 327 326 327
325 324 323 326 332 334 335 343 350 352 350 347 343 339 333 326 318 299 272 240 225 217 215 217 209 202 196 190 182 178 179 186 193 241 307 321 324 324 322 324 327 328 327 327 328 327 323 321 321
322 323 324 326 329 335 339 343 349 351 350 347 342 336 330 325 320 300 267 238 223 216 216 214 207 203 198 192 186 184 185 190 200 241 292 312 318 319 320 322 324 325 325 324 325 323 321 319 318
322 322 322 324 326 332 339 345 349 353 352 348 343 337 332 329 323 307 270 239 221 214 213 209 204 201 198 193 190 189 191 194 207 244 284 303 311 313 314 318 319 319 320 322 324 323 322 316 315
324 320 320 323 326 332 338 345 348 350 349 345 340 336 330 329 319 308 271 240 219 210 207 204 202 200 197 194 194 194 194 198 217 250 278 294 303 307 308 310 313 315 318 321 323 322 319 310 308
330 325 324 323 326 334 340 345 346 345 341 340 336 334 328 322 313 299 271 241 221 213 207 203 202 202 200 197 195 197 199 206 224 251 271 286 297 305 305 305 309 311 312 317 321 319 317 309 299
334 331 329 328 330 337 342 347 344 340 337 336 334 331 328 321 311 294 272 240 219 210 206 204 204 202 201 201 201 202 204 214 228 247 264 282 294 302 304 306 307 310 309 311 314 309 308 308 301
340 334 329 324 330 340 344 344 340 336 335 336 334 331 325 318 309 292 271 240 220 211 208 207 206 202 201 203 205 205 210 218 229 245 261 275 285 294 299 304 305 307 307 307 309 306 303 304 298
329 327 319 318 329 340 344 343 340 339 339 339 336 332 326 317 307 293 274 249 222 216 210 205 205 203 203 206 205 207 213 221 231 245 258 266 274 283 292 299 302 303 304 308 314 314 304 301 294
299 291 300 316 326 335 334 336 341 343 341 341 340 335 331 322 311 298 281 249 226 217 210 205 202 203 205 207 208 210 214 221 233 242 251 261 265 272 285 291 294 300 305 311 317 318 315 307 279
276 278 295 312 322 331 333 335 339 343 342 340 339 338 330 324 317 305 287 256 231 217 211 205 203 204 205 207 209 213 217 223 232 241 251 255 255 263 276 286 293 298 303 311 316 320 328 336 294
267 276 294 307 316 324 332 339 341 340 340 337 336 336 332 328 322 314 297 263 239 220 212 206 204 205 207 208 210 214 217 224 233 240 244 246 250 256 266 279 286 291 298 305 314 320 332 5 72
266 278 284 301 314 323 329 342 343 339 338 336 334 334 330 327 321 312 291 259 234 218 210 206 204 203 207 210 213 217 217 222 230 233 236 241 246 249 257 268 272 279 285 291 305 329 30 95 98
269 277 285 294 308 321 334 343 342 338 333 332 332 333 330 329 325 316 294 265 232 213 205 204 202 203 208 210 212 215 216 219 222 226 230 233 236 241 249 255 258 265 264 263 244 81 105 106 111
266 274 283 294 308 321 334 343 342 337 334 330 330 332 331 331 327 320 299 265 229 210 206 202 200 201 205 208 210 213 215 217 220 223 225 228 230 233 237 241 247 243 230 211 169 144 131 122 119
263 273 282 294 308 322 336 343 342 340 336 334 333 333 333 330 327 324 307 264 225 207 203 201 202 201 204 205 208 211 213 214 216 219 224 226 227 229 229 232 232 220 206 191 167 156 147 135 133
266 275 285 295 307 325 340 346 343 343 342 339 339 337 335 334 332 332 319 262 208 197 197 198 198 199 201 203 204 207 208 212 216 221 226 224 226 224 223 227 222 212 202 189 172 163 153 143 139
268 279 288 299 310 326 337 350 348 349 349 346 344 342 340 338 341 338 325 248 193 189 194 197 196 197 200 201 204 205 207 211 216 220 221 221 222 221 221 221 217 210 202 194 189 185 174 164 160
264 276 286 297 307 323 336 347 352 353 352 349 345 344 344 344 345 349 344 293 193 187 191 193 193 198 198 199 203 205 207 212 216 218 219 221 222 222 221 220 217 213 209 207 207 205 199 196 194
264 272 281 290 302 319 335 344 351 353 353 351 348 344 341 342 346 355 358 4 186 186 190 192 194 195 195 200 206 206 207 209 212 216 218 220 221 221 221 221 220 219 219 219 222 227 232 235 233
263 270 279 285 297 314 327 337 349 349 353 353 349 345 341 338 343 353 5 27 150 176 180 183 189 192 196 200 204 206 208 209 214 218 219 220 221 222 224 227 226 227 228 230 234 240 248 253 253
259 267 275 282 291 308 320 331 343 345 348 351 349 347 346 343 339 342 358 43 115 171 182 186 187 190 195 201 205 208 213 214 217 220 223 225 227 228 231 235 234 234 236 240 244 248 252 257 259
253 261 270 281 288 296 313 327 336 342 345 347 344 345 347 345 343 343 360 70 124 168 180 188 193 196 198 202 203 209 214 216 220 224 227 231 234 236 237 239 242 243 244 247 251 254 256 258 261
241 251 262 274 284 291 302 321 332 335 339 339 336 341 341 337 335 335 327 303 197 195 193 195 195 200 204 206 208 213 217 221 225 228 231 237 241 243 244 245 248 250 252 254 256 259 261 262 264
241 247 256 267 279 285 295 311 332 329 333 332 325 330 334 326 322 313 308 288 253 233 209 195 202 207 210 211 215 219 223 226 231 234 238 243 245 249 251 251 253 255 257 259 262 264 265 266 267
244 249 255 262 271 280 288 303 318 318 322 327 322 320 322 322 309 296 286 277 255 251 227 215 218 218 218 220 223 229 233 234 236 238 242 247 250 252 255 257 258 260 262 264 265 266 267 268 270
249 253 257 262 269 276 284 296 305 308 312 314 310 304 309 313 302 290 280 271 256 245 239 229 232 231 229 229 231 233 235 237 240 244 248 251 253 255 257 259 262 264 266 268 268 268 270 270 271
Height
5883 5882 5881 5881 5881 5880 5879 5879 5877 5876 5875 5874 5873 5872 5872 5872 5873 5875 5873 5873 5874 5875 5876 5877 5879 5880 5881 5882 5883 5884 5885 5886 5888 5889 5889 5890 5891 5891 5891 5891 5891 5891 5890 5890 5890 5889 5889 5889 5889
5883 5882 5882 5881 5880 5879 5879 5878 5876 5875 5874 5872 5871 5870 5869 5869 5869 5870 5870 5870 5872 5873 5874 5876 5877 5878 5880 5881 5882 5883 5884 5885 5887 5888 5888 5889 5890 5890 5890 5890 5890 5890 5889 5889 5889 5889 5889 5889 5889
5883 5882 5882 5881 5880 5879 5878 5877 5875 5874 5872 5871 5869 5868 5867 5867 5867 5867 5867 5868 5870 5871 5873 5874 5876 5877 5878 5879 5881 5882 5883 5884 5886 5887 5887 5888 5888 5888 5888 5888 5888 5888 5888 5888 5888 5888 5888 5888 5888
5883 5882 5882 5881 5880 5878 5877 5876 5874 5872 5870 5869 5867 5866 5865 5865 5864 5864 5865 5866 5867 5869 5871 5873 5874 5875 5877 5878 5879 5881 5882 5884 5885 5886 5886 5886 5887 5887 5887 5887 5887 5887 5887 5887 5887 5888 5888 5888 5888
5882 5882 5881 5880 5879 5878 5876 5874 5872 5871 5869 5867 5866 5864 5863 5862 5861 5861 5862 5863 5864 5866 5868 5871 5872 5874 5875 5877 5878 5880 5881 5883 5884 5885 5885 5886 5886 5886 5886 5886 5886 5886 5886 5886 5887 5887 5887 5887 5887
5882 5881 5881 5879 5878 5876 5875 5873 5871 5869 5867 5866 5864 5863 5861 5860 5859 5859 5859 5860 5862 5864 5866 5869 5870 5872 5874 5876 5877 5879 5880 5882 5883 5884 5885 5885 5885 5885 5885 5885 5885 5885 5885 5885 5885 5885 5885 5885 5886
5883 5881 5879 5878 5876 5875 5874 5871 5869 5867 5866 5864 5863 5861 5859 5857 5856 5856 5856 5857 5859 5861 5864 5866 5869 5871 5873 5875 5876 5878 5880 5881 5882 5883 5884 5884 5884 5884 5884 5884 5884 5884 5884 5884 5884 5884 5884 5884 5885
5881 5881 5879 5877 5876 5874 5872 5870 5868 5866 5864 5863 5861 5859 5857 5856 5854 5853 5853 5854 5856 5858 5861 5864 5866 5869 5871 5873 5875 5877 5879 5880 5881 5882 5883 5883 5883 5883 5883 5883 5883 5883 5883 5883 5883 5884 5883 5883 5883
5881 5881 5878 5877 5875 5874 5871 5869 5867 5865 5863 5861 5859 5857 5855 5853 5851 5850 5850 5851 5853 5855 5858 5861 5864 5867 5869 5872 5874 5876 5877 5879 5880 5881 5882 5882 5882 5882 5882 5882 5881 5881 5881 5882 5882 5883 5883 5882 5882
5880 5879 5878 5877 5875 5873 5871 5868 5866 5864 5862 5859 5857 5854 5852 5850 5848 5847 5847 5848 5850 5853 5856 5859 5862 5865 5868 5870 5872 5874 5876 5878 5879 5880 5880 5881 5881 5881 5881 5880 5880 5880 5880 5881 5881 5882 5882 5882 5881
5879 5878 5877 5876 5874 5872 5870 5868 5865 5863 5860 5857 5855 5852 5849 5847 5845 5844 5844 5845 5847 5850 5853 5857 5860 5863 5866 5868 5871 5873 5874 5876 5878 5878 5879 5879 5880 5880 5880 5879 5879 5879 5879 5880 5880 5881 5881 5881 5881
5878 5878 5876 5875 5873 5871 5869 5867 5864 5861 5859 5856 5853 5849 5846 5844 5842 5841 5841 5842 5843 5847 5850 5853 5857 5860 5863 5866 5868 5870 5873 5875 5876 5877 5877 5878 5878 5879 5878 5878 5878 5878 5878 5878 5879 5879 5879 5879 5879
5878 5877 5875 5874 5872 5870 5868 5866 5863 5860 5858 5854 5851 5848 5844 5842 5839 5838 5837 5838 5840 5843 5846 5850 5853 5857 5860 5863 5866 5868 5870 5873 5874 5875 5876 5877 5877 5877 5877 5877 5877 5877 5877 5877 5877 5878 5878 5878 5878
5877 5875 5874 5873 5871 5869 5867 5864 5862 5859 5856 5853 5849 5846 5842 5839 5837 5835 5833 5834 5836 5838 5841 5846 5849 5853 5857 5860 5863 5866 5868 5871 5872 5873 5874 5875 5875 5876 5876 5876 5876 5876 5876 5877 5877 5877 5877 5877 5877
5875 5875 5873 5872 5870 5868 5866 5863 5860 5857 5854 5850 5847 5844 5840 5837 5834 5832 5831 5830 5832 5834 5838 5842 5845 5849 5853 5856 5859 5863 5866 5868 5870 5871 5872 5873 5874 5874 5875 5875 5875 5876 5876 5876 5876 5876 5877 5877 5877
5873 5873 5872 5871 5869 5866 5865 5862 5858 5855 5851 5848 5844 5841 5838 5834 5831 5829 5827 5827 5829 5831 5834 5838 5842 5846 5850 5853 5857 5860 5863 5866 5868 5869 5871 5872 5873 5873 5874 5874 5875 5875 5875 5875 5875 5876 5876 5877 5877
5871 5871 5870 5869 5867 5865 5862 5859 5856 5852 5848 5845 5842 5838 5834 5831 5828 5825 5823 5823 5825 5827 5830 5834 5839 5843 5847 5850 5854 5857 5861 5863 5866 5867 5869 5870 5872 5872 5873 5874 5874 5874 5875 5875 5875 5875 5876 5876 5877
5869 5869 5868 5866 5865 5863 5860 5857 5854 5849 5845 5842 5839 5836 5832 5829 5825 5822 5819 5819 5820 5822 5826 5831 5835 5839 5844 5848 5852 5855 5859 5861 5864 5866 5867 5869 5870 5871 5872 5873 5874 5874 5874 5875 5875 5875 5876 5876 5877
5866 5867 5866 5864 5862 5860 5858 5855 5852 5847 5843 5840 5837 5834 5830 5827 5824 5820 5817 5816 5817 5819 5823 5827 5832 5837 5841 5846 5850 5853 5856 5859 5862 5864 5866 5867 5869 5870 5871 5872 5873 5874 5874 5874 5875 5875 5876 5876 5877
5864 5864 5863 5863 5860 5858 5856 5854 5850 5846 5842 5839 5836 5833 5829 5826 5823 5819 5816 5815 5815 5818 5821 5825 5830 5835 5840 5844 5847 5851 5854 5857 5860 5862 5864 5865 5867 5868 5870 5871 5872 5873 5873 5874 5875 5875 5876 5876 5877
5862 5862 5861 5860 5859 5857 5855 5853 5849 5845 5841 5838 5835 5832 5829 5826 5823 5820 5817 5815 5815 5817 5820 5824 5828 5832 5838 5842 5845 5849 5852 5855 5858 5860 5862 5863 5865 5867 5868 5870 5871 5872 5873 5874 5874 5875 5876 5877 5877
5859 5859 5859 5858 5857 5855 5854 5851 5849 5845 5841 5838 5835 5832 5829 5827 5824 5821 5819 5818 5816 5818 5820 5823 5827 5831 5835 5839 5843 5847 5850 5853 5856 5858 5860 5862 5863 5865 5867 5869 5870 5871 5872 5873 5874 5875 5876 5876 5877
5857 5857 5857 5856 5855 5854 5852 5850 5849 5845 5841 5838 5835 5832 5829 5827 5825 5823 5820 5819 5819 5819 5820 5822 5826 5830 5834 5839 5842 5845 5848 5851 5854 5856 5858 5860 5862 5864 5866 5867 5868 5870 5871 5872 5873 5874 5875 5876 5876
5854 5854 5854 5854 5853 5853 5851 5849 5847 5844 5841 5838 5835 5832 5830 5827 5826 5824 5822 5821 5820 5821 5822 5824 5826 5830 5834 5837 5841 5844 5847 5850 5853 5855 5856 5858 5860 5862 5864 5865 5867 5868 5869 5871 5872 5873 5873 5874 5875
5851 5852 5852 5851 5851 5851 5849 5848 5847 5843 5840 5838 5835 5833 5830 5828 5827 5825 5824 5822 5822 5822 5823 5825 5827 5830 5833 5836 5839 5842 5846 5848 5851 5853 5855 5857 5859 5860 5862 5863 5865 5866 5868 5869 5870 5870 5871 5872 5873
5847 5848 5849 5849 5848 5848 5847 5846 5846 5843 5840 5837 5835 5833 5831 5829 5828 5826 5825 5824 5824 5824 5825 5826 5827 5829 5832 5835 5838 5841 5844 5847 5849 5851 5853 5855 5857 5858 5860 5861 5862 5864 5865 5866 5867 5868 5868 5869 5869
5843 5844 5845 5845 5845 5845 5845 5845 5844 5842 5839 5837 5835 5833 5832 5830 5828 5827 5826 5825 5825 5825 5825 5826 5827 5829 5831 5834 5837 5840 5842 5845 5847 5849 5851 5853 5854 5856 5857 5858 5859 5860 5862 5862 5863 5864 5865 5865 5866
5839 5840 5841 5841 5841 5841 5842 5842 5842 5840 5838 5836 5834 5833 5832 5830 5828 5827 5826 5825 5825 5825 5826 5826 5828 5829 5830 5833 5836 5838 5840 5842 5844 5846 5848 5849 5851 5852 5853 5854 5855 5856 5857 5858 5859 5859 5860 5861 5861
5835 5836 5836 5837 5837 5837 5838 5841 5840 5838 5837 5835 5834 5832 5831 5829 5828 5827 5826 5826 5826 5826 5826 5827 5828 5828 5830 5831 5834 5836 5837 5839 5841 5842 5844 5846 5847 5848 5849 5850 5851 5852 5852 5853 5854 5854 5854 5855 5855
5830 5831 5832 5833 5833 5833 5834 5839 5836 5836 5834 5833 5832 5831 5829 5828 5827 5826 5826 5825 5825 5825 5825 5826 5826 5827 5828 5829 5831 5833 5835 5836 5838 5839 5841 5842 5843 5844 5844 5845 5846 5847 5847 5847 5848 5848 5848 5848 5848